User: anonymous   Login
Location: Unspecified
(0.0000°N, 0.0000°E)
Time: 20:46:12
(UTC+00:00)
Language:

NOSS 2-3 (D) - Orbit

View from above orbital plane
View from above orbital plane
View from above satellite
View from above satellite

Ground track
Ground track

The orbit data is extracted from the following two-line orbital elements,

1 23862U 96029D   18113.92323554 0.00000000  00000-0  00000-0 0    07
2 23862  63.3767 335.5490 0633727  15.2883 344.7117 13.40838906    08
Epoch (UTC): 23 April 2018 22:09:27
Eccentricity: 0.0633727
inclination: 63.3767°
perigee height: 632 km
apogee height: 1580 km
right ascension of ascending node: 335.5490°
argument of perigee: 15.2883°
revolutions per day: 13.40838906
mean anomaly at epoch: 344.7117°
orbit number at epoch: 0

The dashed part of the orbit path shows where the satellite is in the earth's shadow,  

DLR